Hickory, NC

8:15 AM EDT on October 01, 2016 (GMT -0400)
Hickory Regional

Weather History for KHKY - October, 2013

Change the Weather History Date:

Sunday, October 6, 2013

  Actual Average Record
Temperature  
Mean Temperature 70 °F -  
Max Temperature 81 °F 72 °F 94 °F (1951)
Min Temperature 60 °F 48 °F 35 °F (1964)
Cooling Degree Days 5    
Growing Degree Days 20 (Base 50)    
Moisture  
Dew Point 61 °F    
Average Humidity 85    
Maximum Humidity 100    
Minimum Humidity 48    
Precipitation  
Precipitation 0.01 in - - ()
Sea Level Pressure  
Sea Level Pressure 30.00 in    
Wind  
Wind Speed 1 mph (SSW)    
Max Wind Speed 12 mph    
Max Gust Speed 18 mph    
Visibility 5 miles    
Events Fog    
Averages and records for this station are not official NWS values.
T = Trace of Precipitation, MM = Missing Value Source: NWS Daily Summary

Daily Weather History Graph

Daily Weather History Graph

Search for Another Location

Airport or City:

Trip Planner

Search our weather history database for the weather conditions in past years. The results will help you decide how hot, cold, wet, or windy it might be!

Date:

Astronomy

Oct. 06, 2013 Rise Set
Actual Time 7:24 AM EDT 7:01 PM EDT
Civil Twilight 6:59 AM EDT 7:27 PM EDT
Nautical Twilight 6:29 AM EDT 7:56 PM EDT
Astronomical Twilight 5:59 AM EDT 8:26 PM EDT
Moon 9:03 AM EDT (10/6) 8:05 PM EDT (10/6)
Length of Visible Light 12h 28m
Length of Day
11h 37m
Waxing Crescent, 3% of the Moon is Illuminated
Oct 6
Waxing Crescent
Oct 11
First Quarter
Oct 18
Full
Oct 26
Last Quarter
Nov 3
New

Hourly Weather History & Observations

Time (EDT) Temp. Heat Index Dew Point Humidity Pressure Visibility Wind Dir Wind Speed Gust Speed Precip Events Conditions
12:53 AM 66.0 °F - 63.0 °F 90% 30.01 in 8.0 mi Calm Calm - N/A   Clear
1:53 AM 64.9 °F - 63.0 °F 93% 30.01 in 8.0 mi Calm Calm - N/A   Clear
2:53 AM 64.9 °F - 63.0 °F 93% 29.99 in 7.0 mi Calm Calm - N/A   Clear
3:53 AM 63.0 °F - 61.0 °F 93% 29.98 in 4.0 mi Calm Calm - N/A   Clear
4:53 AM 63.0 °F - 61.0 °F 93% 29.98 in 2.5 mi Calm Calm - N/A   Clear
5:00 AM 62.6 °F - 60.8 °F 94% 30.04 in 0.8 mi Calm Calm - N/A   Clear
5:12 AM 62.6 °F - 60.8 °F 94% 30.04 in 2.0 mi Calm Calm - N/A   Clear
5:22 AM 62.6 °F - 60.8 °F 94% 30.04 in 2.5 mi Calm Calm - N/A   Partly Cloudy
5:24 AM 62.6 °F - 60.8 °F 94% 30.04 in 1.0 mi Calm Calm - N/A   Mist
5:31 AM 60.8 °F - 60.8 °F 100% 30.04 in 0.5 mi Calm Calm - N/A Fog Fog
5:38 AM 62.6 °F - 60.8 °F 94% 30.04 in 0.2 mi Calm Calm - N/A Fog Fog
5:48 AM 60.8 °F - 60.8 °F 100% 30.04 in 0.2 mi Calm Calm - N/A Fog Fog
5:53 AM 61.0 °F - 60.1 °F 97% 29.98 in 0.2 mi Calm Calm - N/A Fog Fog
6:03 AM 60.8 °F - 60.8 °F 100% 30.04 in 0.2 mi Calm Calm - N/A Fog Fog
6:10 AM 60.8 °F - 60.8 °F 100% 30.05 in 0.5 mi Calm Calm - N/A Fog Fog
6:27 AM 60.8 °F - 60.8 °F 100% 30.05 in 1.0 mi Calm Calm - 0.01 in   Mist
6:36 AM 60.8 °F - 60.8 °F 100% 30.05 in 0.5 mi Calm Calm - 0.01 in Fog Fog
6:53 AM 61.0 °F - 60.1 °F 97% 29.99 in 0.5 mi Calm Calm - 0.01 in Fog Fog
7:07 AM 60.8 °F - 60.8 °F 100% 30.05 in 0.2 mi Calm Calm - N/A Fog Fog
7:31 AM 60.8 °F - 59.0 °F 94% 30.05 in 0.5 mi Calm Calm - N/A Fog Fog
7:36 AM 60.8 °F - 59.0 °F 94% 30.05 in 1.0 mi Calm Calm - N/A   Overcast
7:50 AM 60.8 °F - 59.0 °F 94% 30.06 in 0.2 mi Calm Calm - N/A Fog Fog
7:53 AM 60.1 °F - 59.0 °F 96% 30.01 in 0.2 mi Calm Calm - N/A Fog Fog
8:11 AM 60.8 °F - 59.0 °F 94% 30.06 in 0.5 mi Calm Calm - N/A Fog Fog
8:18 AM 60.8 °F - 59.0 °F 94% 30.06 in 0.2 mi Calm Calm - N/A Fog Fog
8:43 AM 62.6 °F - 60.8 °F 94% 30.07 in 1.0 mi Calm Calm - N/A   Overcast
8:47 AM 62.6 °F - 60.8 °F 94% 30.07 in 3.0 mi Calm Calm - N/A   Overcast
8:53 AM 62.1 °F - 61.0 °F 96% 30.02 in 6.0 mi Calm Calm - N/A   Overcast
9:11 AM 62.6 °F - 62.6 °F 100% 30.07 in 5.0 mi Calm Calm - N/A   Scattered Clouds
9:53 AM 68.0 °F - 64.0 °F 87% 30.01 in 9.0 mi Calm Calm - N/A   Clear
10:53 AM 72.0 °F - 64.0 °F 76% 30.01 in 10.0 mi Calm Calm - N/A   Clear
11:53 AM 77.0 °F - 63.0 °F 62% 29.99 in 10.0 mi Variable 5.8 mph - N/A   Scattered Clouds
12:53 PM 77.0 °F - 62.1 °F 60% 29.96 in 10.0 mi SSW 8.1 mph - N/A   Scattered Clouds
1:53 PM 80.1 °F 81.1 °F 61.0 °F 52% 29.94 in 10.0 mi SSW 11.5 mph 18.4 mph N/A   Scattered Clouds
2:53 PM 79.0 °F - 60.1 °F 52% 29.92 in 10.0 mi South 6.9 mph - N/A   Partly Cloudy
3:53 PM 80.1 °F 80.9 °F 60.1 °F 50% 29.91 in 10.0 mi Variable 5.8 mph - N/A   Partly Cloudy
4:53 PM 80.1 °F 80.7 °F 59.0 °F 48% 29.89 in 10.0 mi South 8.1 mph - N/A   Partly Cloudy
5:53 PM 78.1 °F - 59.0 °F 52% 29.89 in 10.0 mi South 9.2 mph - N/A   Clear
6:53 PM 73.9 °F - 60.1 °F 62% 29.90 in 10.0 mi South 3.5 mph - N/A   Clear
7:53 PM 71.1 °F - 61.0 °F 70% 29.89 in 10.0 mi Calm Calm - N/A   Clear
8:53 PM 69.1 °F - 61.0 °F 75% 29.89 in 10.0 mi Calm Calm - N/A   Partly Cloudy
9:53 PM 68.0 °F - 61.0 °F 78% 29.89 in 10.0 mi Calm Calm - N/A   Clear
10:53 PM 68.0 °F - 62.1 °F 81% 29.88 in 10.0 mi Calm Calm - N/A   Mostly Cloudy
11:53 PM 69.1 °F - 63.0 °F 81% 29.86 in 10.0 mi Calm Calm - N/A   Overcast